Weather Service Report


419 
ASUS45 KPSR 060210
RWRAZ 

ARIZONA HOURLY REGIONAL WEATHER ROUNDUP
NATIONAL WEATHER SERVICE PHOENIX AZ
700 PM MST MON DEC 05 2016

NOTE: FAIR INDICATES FEW OR NO CLOUDS BELOW 12,000 FEET WITH NO
SIGNIFICANT WEATHER AND/OR OBSTRUCTIONS TO VISIBILITY.

AZZ001>003-036-060300-
NORTHWEST ARIZONA
  
CITY           SKY/WX    TMP DP  RH WIND       PRES   REMARKS
BULLHEAD CITY  MOCLDY    57  21  24 E6        29.88S                  
KINGMAN        MOCLDY    48  11  22 S8        29.92S                  
$$

AZZ004>008-015-016-018-060300-
NORTH CENTRAL ARIZONA
  
CITY           SKY/WX    TMP DP  RH WIND       PRES   REMARKS
GRAND CANYON   CLOUDY    32  22  66 CALM      29.96R                  
PRESCOTT       MOCLDY    42  17  36 S7        29.95R                  
FLAGSTAFF      MOCLDY    31  17  56 CALM      29.97R                  
PAYSON         CLOUDY    43  19  39 CALM      29.99R                  
PAGE           CLOUDY    46  15  28 CALM      29.86R                  
$$

AZZ009>014-017-060300-
NORTHEAST ARIZONA
  
CITY           SKY/WX    TMP DP  RH WIND       PRES   REMARKS
WINSLOW        MOCLDY    47  16  29 SW10      29.91R                  
SAINT JOHNS    MOCLDY    43  17  35 W13       29.92R                  
WINDOW ROCK    CLOUDY    39  14  36 CALM      29.92R                  
SHOW LOW       MOCLDY    37  14  38 S14       29.97S WCI  29          
$$

AZZ023-060300-
GREATER PHOENIX AREA
  
CITY           SKY/WX    TMP DP  RH WIND       PRES   REMARKS
PHOENIX        CLOUDY    63  18  17 CALM      29.88R                  
BUCKEYE        CLOUDY    54  25  32 NE5       29.91R                  
GLENDALE       MOCLDY    61  30  31 CALM      29.90S                  
LUKE AFB       CLOUDY    60  25  26 CALM      29.88R                  
DEER VALLEY    CLOUDY    57  22  25 CALM      29.89R                  
SCOTTSDALE     CLOUDY    59  22  24 CALM      29.90S                  
MESA-FALCON    MOCLDY   N/A N/A N/A CALM      29.87S                  
CHANDLER       MOCLDY    59  25  27 N6        29.89S                  
$$

AZZ027-028-060300-
SOUTHWEST MARICOPA COUNTY AND PINAL COUNTY
  
CITY           SKY/WX    TMP DP  RH WIND       PRES   REMARKS
CASA GRANDE    NOT AVBL                                               
GILA BEND      PTCLDY    56  23  27 SE6       29.89R                  
$$

AZZ503-504-507>509-060300-
SOUTHEAST ARIZONA
  
CITY           SKY/WX    TMP DP  RH WIND       PRES   REMARKS
TUCSON         MOCLDY    62  19  19 W3        29.94R                  
DAVIS-MONTHAN  MOCLDY    58  20  22 NW8       29.92R                  
RYAN FIELD     CLEAR     57  19  23 NW9       29.94R                  
NOGALES        MOCLDY    53  28  38 S3        29.97R                  
SIERRA VISTA   MOCLDY    53  25  33 W10       29.98R                  
DOUGLAS        PTCLDY    53  28  38 W5        29.97R                  
SAFFORD        PTCLDY    56  14  19 N9        29.90R                  
$$

AZZ020-021-025-026-031-060300-
SOUTHWEST ARIZONA
  
CITY           SKY/WX    TMP DP  RH WIND       PRES   REMARKS
YUMA           CLEAR     63  33  32 E3        29.87R                  
$$

CAZ031-033-041-043-047-048-061-060300-
SOUTHERN CALIFORNIA
  
CITY           SKY/WX    TMP DP  RH WIND       PRES   REMARKS
DOWNTOWN L.A.  CLEAR     58  54  86 CALM      29.93R                  
L.A. AIRPORT   PTCLDY    59  55  87 W7        29.93S                  
SAN DIEGO      MOCLDY    59  52  77 S9        29.96R                  
BURBANK        CLEAR     57  51  80 S6        29.92R                  
ONTARIO        PTCLDY    57  51  80 W7        29.92R                  
RIVERSIDE      CLEAR     59  51  75 W7        29.93R                  
PALM SPRINGS   PTCLDY    60  30  32 CALM      29.90R                  
EL CENTRO NAS  CLEAR     58  37  45 N3        29.88R                  
IMPERIAL       CLEAR     60  36  40 CALM      29.86R                  
BLYTHE         PTCLDY    57  21  24 CALM      29.88R                  
NEEDLES        MOCLDY    57  16  20 SW7       29.88S                  
$$

NVZ020-UTZ003-060300-
SOUTHERN NEVADA-UTAH
  
CITY           SKY/WX    TMP DP  RH WIND       PRES   REMARKS
LAS VEGAS      CLOUDY    56  19  23 SE3       29.87S                  
SALT LAKE CITY MOCLDY    30   9  41 E3        30.02F                  
$$

NMZ009-TXZ055-060300-
NEW MEXICO-WEST TEXAS
  
CITY           SKY/WX    TMP DP  RH WIND       PRES   REMARKS
ALBUQUERQUE    PTCLDY    48  16  27 N8        29.86R                  
EL PASO        PTCLDY    58  25  28 W13       29.87R                  
$$


........................KEY........................
SKY/WX - SKY CONDITION/WEATHER
TMP    - TEMPERATURE IN FAHRENHEIT
DP     - DEW POINT IN FAHRENHEIT
RH     - RELATIVE HUMIDITY IN PERCENT
WIND   - DIRECTION AND SPEED IN MILES PER HOUR (MPH)
VRB    - VARIABLE WIND DIRECTION
PRES   - MEAN SEA LEVEL PRESSURE IN INCHES OF MERCURY
         F - FALLING PRESSURE   R - RISING PRESSURE
         S - STEADY PRESSURE
VSB    - VISIBILITY IN MILES
HX     - HEAT INDEX IN FAHRENHEIT
WCI    - WIND CHILL INDEX IN FAHRENHEIT
TC     - TEMPERATURE IN CELSIUS WHICH IS ALSO KNOWN AS
         TEMPERATURE IN CENTIGRADE
AFB    - AIR FORCE BASE
         LUKE AFB IS LUKE AIR FORCE BASE
         DAVIS-MONTHAN IS DAVIS-MONTHAN AIR FORCE BASE
NAS    - NAVAL AIR STATION
         EL CENTRO NAS IS EL CENTRO NAVAL AIR STATION
N/A    - NOT AVAILABLE

  

Return to Home page


Western Regional Climate Center, wrcc@dri.edu